Bartlesville, OK

4:46 AM CST on February 07, 2016 (GMT -0600)
Bartlesville Municipal

Weather History for KBVO - October, 2012

Change the Weather History Date:

Friday, October 5, 2012

  Actual Average Record
Temperature  
Mean Temperature 46 °F -  
Max Temperature 55 °F 78 °F 95 °F (1963)
Min Temperature 36 °F 51 °F 31 °F (1979)
Degree Days  
Heating Degree Days 20    
Moisture  
Dew Point 41 °F    
Average Humidity 76    
Maximum Humidity 93    
Minimum Humidity 47    
Precipitation  
Precipitation 0.04 in - - ()
Sea Level Pressure  
Sea Level Pressure 30.22 in    
Wind  
Wind Speed 11 mph (NNE)    
Max Wind Speed 23 mph    
Max Gust Speed 29 mph    
Visibility 10 miles    
Events      
Averages and records for this station are not official NWS values.
T = Trace of Precipitation, MM = Missing Value Source: NWS Daily Summary

Daily Weather History Graph

Daily Weather History Graph

Search for Another Location

Airport or City:

Trip Planner

Search our weather history database for the weather conditions in past years. The results will help you decide how hot, cold, wet, or windy it might be!

Date:

Astronomy

Oct. 05, 2012 Rise Set
Actual Time 7:23 AM CDT 7:00 PM CDT
Civil Twilight 6:57 AM CDT 7:26 PM CDT
Nautical Twilight 6:27 AM CDT 7:56 PM CDT
Astronomical Twilight 5:57 AM CDT 8:26 PM CDT
Moon 10:32 PM CDT (10/5) 12:24 PM CDT (10/5)
Length of Visible Light 12h 29m
Length of Day
11h 37m
Waning Gibbous, 74% of the Moon is Illuminated
Oct 5
Waning Gibbous
Oct 8
Last Quarter
Oct 15
New
Oct 21
First Quarter
Oct 29
Full

Hourly Weather History & Observations

Time (CDT) Temp. Dew Point Humidity Pressure Visibility Wind Dir Wind Speed Gust Speed Precip Events Conditions
12:53 AM 50.0 °F 46.9 °F 89% 30.19 in 10.0 mi North 9.2 mph - 0.00 in   Overcast
1:53 AM 50.0 °F 48.0 °F 93% 30.19 in 10.0 mi NNE 13.8 mph 20.7 mph 0.01 in   Overcast
3:53 AM 51.1 °F 46.0 °F 83% 30.19 in 10.0 mi NNE 11.5 mph - N/A   Overcast
4:53 AM 50.0 °F 46.0 °F 86% 30.17 in 10.0 mi NNE 6.9 mph - 0.01 in   Overcast
5:53 AM 50.0 °F 46.9 °F 89% 30.18 in 10.0 mi NNE 8.1 mph - 0.02 in   Overcast
6:53 AM 50.0 °F 45.0 °F 83% 30.18 in 10.0 mi NNE 12.7 mph - N/A   Overcast
7:53 AM 50.0 °F 45.0 °F 83% 30.20 in 10.0 mi North 13.8 mph - N/A   Overcast
8:53 AM 50.0 °F 45.0 °F 83% 30.20 in 10.0 mi NNE 16.1 mph - N/A   Overcast
9:30 AM 50.0 °F 44.6 °F 82% 30.21 in 10.0 mi NNE 13.8 mph - N/A   Overcast
10:53 AM 51.1 °F 46.0 °F 83% 30.21 in 10.0 mi North 12.7 mph - N/A   Overcast
11:53 AM 51.1 °F 46.0 °F 83% 30.21 in 10.0 mi NNE 10.4 mph - N/A   Overcast
12:53 PM 51.1 °F 44.1 °F 77% 30.22 in 10.0 mi North 15.0 mph - N/A   Overcast
1:53 PM 52.0 °F 44.1 °F 74% 30.21 in 10.0 mi North 12.7 mph 21.9 mph N/A   Overcast
2:53 PM 55.0 °F 43.0 °F 64% 30.21 in 10.0 mi NNE 17.3 mph 24.2 mph N/A   Overcast
3:04 PM 55.4 °F 42.8 °F 63% 30.22 in 10.0 mi North 17.3 mph 26.5 mph N/A   Overcast
3:53 PM 55.9 °F 37.9 °F 51% 30.20 in 10.0 mi NNE 23.0 mph 28.8 mph N/A   Overcast
4:53 PM 55.9 °F 36.0 °F 47% 30.20 in 10.0 mi ENE 16.1 mph 21.9 mph N/A   Clear
5:53 PM 53.1 °F 35.1 °F 50% 30.21 in 10.0 mi NE 11.5 mph 19.6 mph N/A   Clear
6:53 PM 50.0 °F 34.0 °F 54% 30.24 in 10.0 mi NNE 6.9 mph - N/A   Clear
7:53 PM 46.9 °F 34.0 °F 61% 30.26 in 10.0 mi NNE 5.8 mph - N/A   Clear
8:53 PM 43.0 °F 35.1 °F 74% 30.28 in 10.0 mi Calm Calm - N/A   Clear
9:53 PM 37.9 °F 34.0 °F 86% 30.29 in 10.0 mi Calm Calm - N/A   Clear
10:53 PM 36.0 °F 34.0 °F 93% 30.31 in 10.0 mi Calm Calm - N/A   Clear
11:53 PM 37.9 °F 35.1 °F 89% 30.31 in 10.0 mi Calm Calm - N/A   Clear